User: anonymous   Login
Location: Unspecified
(0.0000°N, 0.0000°E)
Time: 03:28:19
(UTC+00:00)
Language:

GSAT 9 - Orbit

View from above orbital plane
View from above orbital plane
View from above satellite
View from above satellite

Ground track
Ground track

The orbit data is extracted from the following two-line orbital elements,

1 42695U 17024A   19315.05754469 -.00000275  00000-0  00000+0 0  9993
2 42695   0.1129 101.4419 0002164 133.0015 293.5295  1.00270734  9263
Epoch (UTC): 11 November 2019 01:22:51
Eccentricity: 0.0002164
inclination: 0.1129°
perigee height: 35777 km
apogee height: 35795 km
right ascension of ascending node: 101.4419°
argument of perigee: 133.0015°
revolutions per day: 1.00270734
mean anomaly at epoch: 293.5295°
orbit number at epoch: 926

The dashed part of the orbit path shows where the satellite is in the earth's shadow,  

DLR